Wind_Speed
25 24 24 24 23 22 22 22 20 17 15 15 15 14 14 13 11 10 10 10 9 9 9 9 9 8 7 7 6 5 5 5 5 4 4 4 5 6 7 7 7 7 8 8 9 9 9 9 10
25 25 25 25 25 24 24 23 21 19 18 17 15 14 13 13 12 11 11 11 10 10 10 10 10 9 9 7 6 5 5 5 4 4 4 4 5 6 7 7 7 7 8 8 9 9 9 10 10
23 25 25 26 25 25 24 24 22 21 19 18 16 15 13 13 12 12 12 12 11 11 10 10 10 9 9 8 7 6 5 5 5 4 4 5 5 5 6 6 6 7 8 8 9 10 10 10 11
21 23 25 26 26 26 25 25 23 22 20 19 18 16 14 14 13 12 13 13 12 11 11 10 10 9 9 8 8 7 6 6 5 5 5 5 4 5 7 7 7 8 9 9 10 10 10 11 11
19 22 24 25 25 26 26 26 24 22 20 20 19 17 16 15 14 13 13 14 13 12 11 10 10 10 9 9 8 7 6 6 6 5 5 5 5 6 7 7 8 9 10 10 10 10 10 11 11
19 22 22 23 23 25 25 25 23 22 21 21 20 18 17 16 15 14 14 14 14 13 12 11 10 9 9 9 8 8 7 6 6 5 5 5 6 7 8 8 8 9 9 9 9 9 10 10 10
17 19 20 21 21 22 23 23 22 23 22 21 21 20 18 17 16 16 15 15 14 13 12 11 11 10 9 9 8 8 7 6 6 5 5 5 6 7 7 8 8 8 8 9 9 8 9 10 9
16 18 18 20 20 21 21 21 22 23 23 23 22 21 19 18 17 17 17 16 15 14 13 12 11 10 9 9 8 8 7 6 6 6 5 6 7 9 9 8 8 8 8 8 8 9 9 9 8
14 15 15 18 19 20 20 20 22 23 22 23 23 21 20 20 19 18 18 17 17 15 14 13 12 11 10 9 8 7 7 6 6 6 6 6 7 8 8 7 7 7 7 7 8 8 8 8 7
11 11 14 16 17 19 19 19 20 21 21 22 23 22 21 21 20 20 19 18 18 17 16 14 12 11 11 10 9 7 7 6 6 6 6 6 6 7 7 6 6 7 7 7 7 7 7 7 6
10 11 13 15 16 18 18 19 19 19 19 20 21 21 21 21 20 20 19 19 18 18 16 15 13 12 11 10 9 8 8 7 7 6 6 6 6 5 6 6 6 6 6 6 5 5 6 6 5
7 9 11 13 15 17 16 17 17 17 17 18 19 19 20 20 20 20 20 19 18 18 17 16 14 13 12 11 10 10 9 8 7 6 6 6 5 5 5 5 5 5 6 5 5 5 5 5 5
4 6 8 11 13 15 15 15 16 16 16 17 17 17 18 19 19 19 19 19 19 18 17 16 15 14 13 12 11 10 9 8 7 6 6 5 4 4 4 4 4 5 5 5 5 5 5 5 5
2 3 5 7 8 10 12 13 14 15 15 15 15 15 16 17 18 18 19 19 19 18 17 16 16 15 14 13 12 10 9 8 7 6 6 5 4 3 3 3 3 4 4 4 5 5 5 5 5
4 1 2 3 4 7 9 11 13 14 14 14 14 14 15 16 17 18 18 18 18 18 17 17 16 16 15 14 12 11 10 9 7 6 5 4 4 4 3 3 2 3 4 5 5 5 5 5 5
7 4 3 3 3 5 6 9 11 13 13 14 13 13 14 15 15 16 17 17 18 17 17 17 16 15 14 14 12 11 10 9 8 7 5 4 3 3 3 2 2 3 3 4 4 5 5 6 6
7 4 3 3 5 5 6 7 8 10 11 12 12 12 13 14 15 15 15 16 16 16 16 16 15 14 14 13 13 11 10 9 8 7 6 4 3 2 1 1 1 2 3 3 4 4 5 6 7
7 6 6 6 6 7 7 7 6 7 9 11 11 11 12 13 13 13 13 14 14 15 15 14 14 13 13 12 12 11 10 9 8 7 7 5 3 2 2 1 0 2 3 4 4 4 5 6 7
10 9 8 7 7 8 8 7 6 7 8 9 11 10 10 10 11 12 12 12 13 13 14 14 13 12 12 12 11 10 10 9 8 7 6 5 3 2 2 1 2 1 1 3 4 5 5 6 6
12 11 8 6 7 8 8 9 7 7 8 8 8 8 8 8 9 10 10 10 11 12 13 13 12 12 11 11 11 10 10 9 8 7 6 5 4 2 2 1 1 1 2 3 4 4 5 6 6
14 12 9 9 10 11 11 10 9 9 8 8 8 8 8 8 8 9 9 9 10 11 12 12 12 11 10 10 10 10 10 9 9 8 7 5 4 4 3 3 3 3 3 4 5 5 5 6 7
16 13 13 13 14 15 14 12 11 10 11 10 9 8 7 8 8 8 8 8 9 9 10 11 11 11 10 10 9 9 9 9 8 8 7 6 5 5 4 4 3 3 4 4 5 5 5 6 6
18 16 17 17 16 18 17 16 14 14 14 12 9 8 7 7 7 7 6 7 7 9 10 10 11 11 10 10 9 9 9 9 8 8 8 7 5 5 5 5 4 4 4 5 5 5 5 5 6
19 19 20 20 19 19 18 18 16 17 16 13 11 9 7 7 8 7 7 7 7 9 9 10 10 10 11 10 10 9 8 8 8 8 8 7 6 5 5 5 5 5 5 5 6 6 7 6 7
21 21 22 23 22 20 18 20 19 17 15 13 11 9 9 9 8 8 8 8 8 8 9 10 10 10 10 10 10 9 8 8 8 8 7 7 6 6 7 6 5 5 5 5 6 6 7 8 8
20 22 23 23 22 21 20 21 19 18 16 14 12 10 9 9 9 8 9 8 8 9 9 9 10 10 10 10 10 9 9 8 8 7 8 8 8 7 7 6 6 6 6 6 6 7 7 8 8
22 23 23 23 23 22 22 21 20 18 17 15 14 11 9 10 10 10 11 11 10 9 9 10 11 11 11 11 11 10 10 9 9 8 9 9 8 8 7 7 7 7 7 7 7 8 8 8 9
24 23 24 25 23 23 24 23 21 19 18 17 15 12 12 12 14 14 14 12 12 11 10 10 11 12 11 12 11 10 10 10 10 9 9 9 9 8 8 8 8 8 9 9 9 9 10 9 9
25 25 26 27 26 25 25 24 21 19 17 15 14 14 14 14 14 15 14 13 14 14 14 13 13 13 12 12 12 11 11 11 11 11 10 10 10 10 9 9 9 9 10 10 10 10 10 10 11
26 25 25 27 27 26 26 25 22 21 18 17 16 16 15 15 16 16 16 16 15 16 16 16 15 14 14 13 13 13 14 13 13 13 13 13 12 12 11 12 12 11 11 11 11 11 12 12 12
Wind_Direction
59 55 52 51 49 48 49 50 50 50 50 50 49 50 49 52 55 55 55 59 60 65 69 79 85 88 96 100 102 109 111 108 114 115 118 122 126 128 135 142 143 141 143 142 137 132 132 132 132
57 53 50 50 48 47 48 48 49 50 52 51 50 50 49 55 60 60 59 61 64 67 70 79 87 88 91 98 104 103 107 109 107 105 122 123 129 132 136 140 139 140 144 143 138 132 132 132 130
58 50 46 47 49 47 48 48 47 48 50 52 51 51 51 55 59 59 59 64 67 70 73 77 83 85 86 89 96 106 110 107 99 96 112 123 128 131 138 135 143 144 140 136 134 133 135 133 132
59 50 44 45 47 48 49 51 48 47 49 51 51 51 52 56 58 58 60 64 64 68 72 78 81 83 86 88 91 97 101 100 99 93 103 119 125 127 135 138 139 144 139 135 134 133 136 135 133
57 49 41 40 43 46 48 49 48 44 46 50 51 49 51 56 58 57 60 61 62 64 69 75 82 82 82 87 89 92 92 95 101 94 94 111 117 128 135 138 135 138 140 139 137 137 135 131 132
53 45 38 38 41 43 45 47 47 46 45 49 51 51 52 56 58 59 60 60 60 63 68 72 78 81 79 83 85 83 86 87 91 92 84 106 125 133 137 134 133 134 137 140 140 136 134 131 132
51 43 36 37 39 42 44 47 49 48 46 47 50 51 54 56 58 58 59 60 61 63 68 70 72 75 78 78 80 82 84 85 87 88 87 101 117 130 133 131 129 131 139 141 141 135 130 130 131
50 41 34 36 38 40 43 46 49 49 47 47 49 51 52 54 58 57 57 58 61 62 66 68 72 73 76 75 76 79 81 83 85 87 91 103 110 122 127 130 134 142 144 141 139 137 134 135 134
47 37 31 31 34 39 45 46 47 47 45 47 48 50 51 54 58 59 59 59 61 61 62 66 69 69 72 74 74 76 78 80 82 88 92 104 111 120 122 125 132 137 137 137 138 139 138 136 134
43 34 31 28 32 37 42 43 48 46 43 45 47 49 51 54 56 58 60 59 59 60 60 62 65 66 67 69 71 71 77 83 84 85 96 103 111 121 125 126 130 135 136 136 135 140 140 141 137
40 38 30 27 30 33 38 39 44 47 44 45 46 47 50 52 54 56 58 59 59 59 60 62 62 63 63 64 64 68 72 81 87 84 93 100 107 117 133 137 137 141 142 144 145 149 148 148 146
46 40 25 24 27 30 34 35 37 41 43 45 45 45 49 53 54 55 55 56 58 60 62 62 60 60 60 60 60 63 69 77 85 87 94 92 103 121 133 149 155 155 154 156 159 150 149 157 159
62 48 24 15 19 26 29 32 33 34 38 41 42 42 44 49 52 52 54 54 55 56 59 61 62 61 59 59 60 61 64 70 77 84 88 89 95 110 132 148 162 166 165 167 167 166 160 154 159
119 40 30 17 13 21 30 31 29 27 28 35 38 40 40 43 47 50 53 54 54 54 56 58 59 58 58 59 60 61 63 67 72 76 78 85 95 102 114 140 159 174 182 178 171 179 182 178 178
198 240 3 10 6 11 18 27 27 24 25 30 33 36 38 40 42 43 47 50 50 51 53 55 55 56 56 57 59 60 61 63 64 65 71 82 94 108 119 125 143 176 197 199 195 196 203 208 208
211 235 281 318 331 342 358 14 20 16 20 24 26 28 30 33 37 39 42 45 47 48 49 49 50 51 52 53 53 53 57 60 58 56 56 62 86 113 125 139 161 175 194 204 208 215 218 222 224
201 225 247 283 301 314 328 348 7 9 9 16 17 19 24 27 30 34 39 42 43 46 47 47 46 46 47 47 48 50 52 54 51 47 49 56 66 84 109 148 171 191 202 218 224 226 231 236 234
213 228 252 266 277 294 312 327 349 358 2 6 6 10 18 21 24 30 35 39 40 41 44 45 44 44 44 43 43 44 46 46 43 40 40 44 52 63 70 80 152 219 219 230 233 235 237 238 238
215 229 249 254 259 282 293 294 304 335 344 352 355 1 12 17 16 21 30 35 36 37 38 38 37 37 38 38 38 37 37 36 33 29 27 30 32 42 44 31 32 33 233 233 236 239 242 246 246
219 229 240 244 260 269 277 282 292 308 329 332 343 354 0 5 7 14 24 27 29 29 30 30 30 30 32 32 32 32 30 28 25 21 16 16 14 2 351 334 312 323 294 263 249 251 250 251 255
222 228 232 249 260 263 270 278 293 298 308 310 318 335 338 349 357 2 10 15 17 18 19 21 21 22 24 24 24 25 25 26 24 19 15 13 4 354 348 328 301 292 284 273 262 253 257 256 257
222 230 235 245 257 258 266 278 284 290 300 307 313 318 325 335 343 348 359 3 4 4 7 11 11 13 14 13 13 14 15 18 18 13 9 6 357 346 339 336 322 307 290 283 273 261 259 259 260
222 226 233 237 245 256 256 265 271 278 290 293 297 309 310 320 325 330 343 353 355 354 356 359 2 5 5 3 4 4 5 5 5 5 4 3 354 345 338 329 320 316 299 289 282 273 264 266 264
224 227 228 232 239 249 255 264 266 276 283 284 281 292 298 297 306 315 327 340 341 342 344 346 350 354 355 354 356 357 357 356 357 358 360 356 351 346 340 322 313 310 306 296 283 274 272 269 268
225 228 229 232 239 246 252 259 266 270 269 269 273 277 284 291 298 301 313 323 324 328 330 332 334 336 340 342 344 348 349 349 351 353 356 355 353 351 347 336 323 315 315 312 303 286 275 273 272
229 231 232 236 240 245 252 261 265 265 268 268 269 273 279 280 282 290 299 303 309 311 317 323 326 327 327 329 332 335 335 337 341 344 347 348 348 344 341 338 331 321 315 309 307 306 294 283 281
230 235 237 239 242 248 252 259 263 262 271 275 271 266 272 280 277 286 294 287 291 295 302 314 317 320 321 320 322 325 327 327 330 334 335 337 336 335 335 332 324 319 313 307 301 300 299 298 292
230 233 237 238 241 247 252 258 263 260 267 273 270 266 272 274 278 281 284 278 286 290 292 298 307 308 309 310 312 315 317 318 319 319 321 326 327 324 326 325 319 313 310 306 301 295 294 296 297
230 232 235 237 241 248 252 258 261 262 268 274 268 266 271 271 275 279 283 279 292 293 296 297 301 302 299 298 298 301 306 307 305 306 307 310 312 312 313 314 314 308 303 300 299 297 294 294 296
233 235 238 239 240 245 252 258 259 264 271 276 272 267 267 270 275 281 282 286 289 291 292 290 291 295 293 290 290 291 294 296 296 297 296 296 297 299 300 303 305 304 299 296 294 295 293 294 296
Height
5909 5907 5907 5906 5904 5902 5899 5898 5897 5895 5893 5891 5889 5888 5887 5886 5886 5886 5883 5881 5880 5879 5878 5877 5877 5877 5877 5878 5878 5879 5879 5879 5880 5880 5880 5879 5879 5879 5880 5880 5880 5880 5880 5881 5882 5882 5883 5884 5885
5912 5910 5910 5908 5905 5904 5902 5900 5899 5897 5895 5893 5891 5890 5889 5888 5886 5885 5883 5882 5881 5880 5879 5878 5878 5878 5878 5879 5879 5880 5880 5880 5880 5880 5880 5880 5880 5880 5880 5880 5880 5880 5881 5882 5883 5883 5884 5885 5885
5915 5914 5914 5910 5908 5906 5905 5902 5901 5899 5897 5895 5894 5893 5891 5889 5887 5885 5884 5883 5882 5881 5881 5880 5879 5880 5880 5880 5880 5881 5881 5881 5881 5881 5881 5881 5881 5881 5881 5881 5881 5881 5882 5883 5884 5884 5885 5886 5887
5918 5917 5916 5914 5911 5909 5907 5906 5904 5902 5900 5898 5896 5895 5893 5891 5889 5887 5886 5884 5884 5883 5882 5882 5882 5882 5881 5882 5882 5882 5882 5882 5882 5882 5882 5882 5881 5881 5882 5882 5882 5882 5883 5884 5885 5886 5886 5887 5888
5920 5919 5917 5915 5914 5913 5911 5909 5907 5905 5903 5900 5898 5897 5895 5892 5890 5888 5887 5886 5885 5885 5884 5884 5883 5883 5883 5883 5883 5883 5883 5883 5883 5883 5883 5882 5882 5882 5882 5883 5883 5883 5884 5885 5886 5887 5887 5888 5889
5923 5921 5920 5918 5917 5916 5914 5912 5911 5909 5906 5903 5901 5899 5897 5894 5892 5890 5889 5888 5887 5886 5886 5885 5885 5885 5885 5884 5884 5884 5884 5884 5884 5884 5883 5882 5882 5882 5883 5884 5884 5885 5886 5887 5887 5888 5889 5890 5891
5926 5924 5923 5922 5921 5919 5918 5916 5914 5912 5909 5906 5904 5902 5899 5897 5895 5893 5891 5890 5889 5888 5887 5887 5887 5886 5886 5886 5886 5886 5885 5885 5885 5885 5884 5884 5883 5883 5884 5884 5885 5887 5887 5888 5889 5890 5890 5891 5892
5928 5927 5926 5925 5924 5922 5921 5919 5916 5914 5912 5909 5906 5904 5902 5900 5897 5895 5893 5892 5891 5889 5888 5888 5888 5888 5888 5887 5887 5887 5887 5886 5886 5886 5885 5885 5885 5885 5885 5886 5887 5888 5889 5889 5890 5891 5892 5893 5893
5930 5930 5929 5928 5927 5925 5923 5921 5919 5916 5914 5912 5909 5907 5905 5902 5900 5898 5896 5895 5893 5892 5890 5890 5890 5889 5889 5889 5888 5888 5887 5887 5887 5887 5886 5887 5886 5886 5887 5887 5888 5889 5890 5891 5891 5892 5893 5894 5894
5932 5932 5931 5930 5929 5928 5926 5924 5922 5919 5917 5915 5912 5910 5907 5905 5903 5901 5899 5897 5896 5894 5893 5892 5891 5891 5890 5890 5890 5889 5888 5888 5888 5888 5888 5888 5888 5888 5889 5889 5889 5890 5891 5892 5892 5893 5894 5895 5895
5934 5933 5933 5932 5930 5929 5928 5926 5924 5922 5921 5918 5916 5913 5911 5908 5906 5904 5902 5900 5898 5897 5895 5894 5893 5893 5892 5891 5891 5890 5889 5889 5889 5889 5889 5889 5889 5890 5890 5890 5891 5891 5892 5892 5893 5894 5894 5895 5895
5935 5934 5934 5933 5931 5930 5929 5928 5927 5925 5924 5921 5919 5916 5914 5912 5909 5907 5905 5903 5901 5899 5898 5897 5896 5895 5894 5893 5892 5891 5891 5890 5890 5890 5890 5890 5890 5891 5891 5891 5892 5892 5893 5893 5894 5894 5894 5895 5896
5935 5934 5934 5933 5932 5932 5930 5929 5929 5928 5926 5924 5921 5919 5917 5915 5912 5910 5908 5906 5904 5902 5901 5900 5898 5897 5896 5895 5894 5893 5893 5892 5892 5891 5891 5891 5891 5891 5892 5892 5892 5892 5893 5893 5894 5894 5895 5895 5896
5935 5935 5935 5934 5934 5933 5932 5931 5931 5929 5928 5926 5924 5922 5920 5917 5915 5912 5910 5908 5906 5904 5903 5902 5901 5899 5898 5897 5895 5895 5894 5894 5893 5893 5892 5892 5892 5892 5892 5892 5892 5893 5893 5893 5894 5894 5895 5895 5896
5935 5936 5936 5936 5935 5934 5934 5933 5932 5931 5929 5928 5926 5924 5922 5919 5917 5915 5912 5910 5909 5907 5905 5904 5903 5901 5900 5898 5897 5896 5895 5895 5894 5894 5893 5893 5892 5892 5892 5893 5893 5893 5893 5893 5893 5894 5894 5895 5895
5936 5936 5936 5936 5935 5934 5935 5933 5933 5931 5930 5929 5927 5925 5924 5921 5919 5916 5914 5912 5910 5909 5907 5905 5904 5903 5902 5900 5899 5898 5897 5896 5895 5895 5894 5893 5893 5893 5893 5893 5893 5893 5893 5893 5893 5893 5894 5894 5895
5935 5936 5936 5936 5934 5933 5933 5933 5933 5932 5930 5929 5928 5927 5925 5923 5920 5918 5916 5914 5912 5911 5909 5907 5906 5905 5903 5902 5901 5899 5898 5897 5897 5896 5895 5894 5893 5893 5893 5892 5892 5892 5892 5892 5892 5893 5893 5893 5894
5934 5934 5934 5934 5933 5933 5932 5932 5932 5931 5931 5930 5929 5927 5926 5924 5922 5920 5918 5916 5914 5913 5911 5909 5908 5906 5905 5904 5902 5901 5900 5898 5898 5896 5895 5894 5894 5893 5893 5892 5892 5891 5891 5891 5891 5892 5892 5892 5892
5931 5932 5932 5933 5932 5931 5930 5930 5930 5930 5930 5930 5929 5927 5926 5925 5924 5922 5920 5918 5916 5915 5913 5911 5909 5908 5906 5905 5903 5902 5901 5899 5898 5897 5896 5895 5894 5893 5893 5892 5892 5891 5891 5891 5891 5891 5891 5891 5891
5928 5929 5930 5931 5930 5929 5928 5927 5928 5928 5929 5929 5929 5927 5926 5925 5924 5922 5921 5919 5918 5916 5914 5913 5911 5909 5907 5906 5904 5903 5901 5900 5899 5897 5896 5895 5894 5893 5892 5892 5891 5891 5891 5890 5890 5890 5890 5889 5889
5925 5927 5928 5928 5928 5927 5926 5926 5926 5926 5927 5927 5927 5926 5926 5924 5923 5922 5921 5920 5918 5917 5915 5913 5912 5910 5908 5906 5905 5903 5901 5900 5899 5897 5896 5895 5893 5893 5892 5891 5890 5890 5890 5889 5889 5889 5889 5888 5888
5922 5924 5925 5925 5924 5924 5925 5924 5924 5924 5925 5925 5925 5925 5925 5924 5923 5921 5920 5919 5918 5917 5915 5913 5912 5910 5908 5907 5905 5903 5902 5900 5898 5897 5895 5894 5893 5892 5891 5890 5890 5889 5889 5888 5888 5887 5887 5886 5886
5918 5920 5921 5921 5922 5922 5922 5922 5923 5922 5922 5923 5923 5924 5923 5923 5923 5921 5919 5918 5918 5917 5915 5913 5911 5909 5908 5906 5904 5903 5901 5900 5898 5896 5895 5894 5892 5891 5890 5889 5888 5888 5887 5887 5886 5885 5885 5885 5884
5914 5916 5917 5917 5918 5919 5920 5920 5920 5920 5920 5920 5920 5921 5921 5920 5921 5920 5919 5918 5917 5916 5915 5913 5911 5909 5907 5906 5904 5902 5900 5899 5897 5896 5894 5893 5892 5891 5889 5888 5887 5886 5886 5885 5884 5884 5883 5882 5882
5910 5912 5913 5914 5914 5916 5917 5916 5917 5917 5918 5918 5917 5917 5918 5917 5917 5917 5917 5916 5915 5914 5913 5912 5910 5908 5906 5905 5903 5901 5900 5898 5896 5895 5893 5892 5890 5889 5888 5887 5886 5885 5884 5883 5882 5882 5881 5880 5880
5905 5907 5909 5910 5911 5912 5912 5912 5914 5914 5914 5914 5914 5914 5915 5914 5914 5914 5913 5913 5913 5912 5911 5909 5908 5906 5905 5903 5901 5900 5898 5897 5895 5893 5892 5891 5889 5888 5886 5885 5884 5883 5882 5881 5880 5879 5879 5878 5877
5900 5902 5904 5905 5906 5907 5907 5908 5908 5909 5909 5910 5910 5910 5911 5911 5910 5910 5910 5910 5909 5909 5907 5906 5905 5904 5903 5901 5900 5898 5896 5895 5893 5892 5890 5889 5887 5886 5885 5883 5882 5881 5880 5879 5878 5877 5876 5875 5875
5895 5897 5899 5900 5900 5901 5902 5903 5904 5905 5905 5905 5906 5906 5906 5907 5907 5906 5905 5905 5905 5905 5904 5903 5902 5901 5900 5899 5898 5896 5895 5893 5891 5890 5888 5887 5885 5884 5882 5881 5880 5878 5877 5876 5875 5874 5873 5873 5872
5890 5892 5893 5894 5895 5896 5896 5899 5900 5900 5901 5901 5901 5902 5902 5902 5902 5902 5901 5902 5902 5902 5901 5900 5899 5898 5897 5895 5894 5893 5892 5890 5889 5887 5886 5884 5882 5881 5880 5878 5877 5875 5874 5873 5872 5871 5870 5869 5868
5883 5885 5887 5889 5890 5891 5891 5895 5895 5896 5896 5897 5897 5897 5898 5898 5898 5898 5898 5898 5898 5897 5897 5896 5894 5894 5893 5891 5890 5889 5888 5887 5885 5884 5882 5880 5879 5878 5877 5875 5874 5872 5871 5870 5869 5868 5867 5866 5865